Flag for Colombia Weather past 2 weeks in Santa Marta, Colombia

Now
81 °F

Partly cloudy.


Feels Like: 88 °F
Forecast: 83 / 88 °F
Wind: 8 mph from Northeast

Location: Barranquilla / Ernestocortissoz

Current Time: Sep 18, 2014 at 3:10:53 AM

Latest Report: Sep 18, 2014 at 2:00 AM


Visibility: N/A

Pressure: 29.84 "Hg

Humidity: 94%

Dew point: 79 °F

Location of Santa MartaLocation

Historic Weather in Santa Marta — Graph

°F

Santa Marta temperature yesterday

Maximum temperature yesterday: 90 °F (at 2:00 PM)
Minimum temperature yesterday: 77 °F (at 12:00 AM)
Average temperature yesterday: 81 °F

Past Weeks' High & Low Weather Summary

 TemperatureHumidityPressure
High95 °F (Sep 5, 1:00 PM)100% (Sep 3, 2:00 AM)29.97 "Hg (Sep 3, 2:00 AM)
Low73 °F (Sep 15, 5:00 AM)60% (Sep 5, 1:00 PM)29.72 "Hg (Sep 7, 4:00 PM)
Average82 °F89%29.83 "Hg
* Reported Sep 3 2:00 AM — Sep 18 2:00 AM, Santa Marta, Weather by CustomWeather, © 2014

Note: Actual official high and low records may vary slightly from our data, if they occured in-between our weather recording intervals... More about our weather records

Advertising

Santa Marta weather history for previous 24 hours

 ConditionsComfort  
Time TempWeatherWind HumidityBarometerVisibility
2:00 AM
Sep 18
81 °FPartly cloudy.8 mph94%29.84 "HgN/A
1:00 AM79 °FPartly cloudy.6 mph94%29.86 "HgN/A
12:00 AM75 °FPartly cloudy.6 mph100%29.88 "HgN/A
11:00 PM
Sep 17
77 °FThunderstorms. Partly cloudy.9 mph94%29.92 "HgN/A
10:00 PM79 °FThunderstorms. Passing clouds.9 mph94%29.92 "Hg5 mi
9:00 PM82 °FPartly cloudy.7 mph89%29.92 "HgN/A
8:00 PM82 °FPartly cloudy.7 mph89%29.89 "HgN/A
7:00 PM82 °FPartly cloudy.5 mph89%29.85 "HgN/A
6:00 PM82 °FPartly cloudy.5 mph89%29.83 "HgN/A
5:00 PM82 °FBroken clouds.7 mph89%29.82 "HgN/A
4:00 PM82 °FBroken clouds.10 mph89%29.82 "HgN/A
3:00 PM84 °FBroken clouds.3 mph79%29.82 "HgN/A
2:00 PM90 °FScattered showers. Broken clouds.8 mph71%29.80 "Hg5 mi
1:00 PM88 °FScattered clouds.14 mph70%29.86 "HgN/A
12:00 PM88 °FScattered clouds.3 mph70%29.86 "HgN/A
11:00 AM86 °FScattered clouds.7 mph75%29.90 "HgN/A
10:00 AM82 °FScattered clouds.6 mph84%29.91 "HgN/A
9:00 AM82 °FScattered clouds.5 mph89%29.93 "HgN/A
8:00 AM77 °FFog.7 mph100%29.92 "Hg2 mi
7:00 AM77 °FFog.5 mph100%29.90 "Hg1 mi
6:00 AM77 °FFog.9 mph100%29.88 "Hg1 mi
5:00 AM77 °FFog.9 mph100%29.85 "Hg3 mi
4:00 AM77 °FPassing clouds.5 mph94%29.85 "HgN/A
3:00 AM81 °FPassing clouds.3 mph94%29.85 "HgN/A
Weather by CustomWeather, © 2014

See weather overviewHow to use our weather pages